Showing default

GOES 16, 41866

Orbit data source: Space-Track

GOES 16, 41866 is a payload satellite owned by NOAA (US) in GEO that was launched on Sat, 19 Nov 2016 UTC via an ATLAS V 541 launch vehicle from the Air Force Eastern Test Range (AFETR). Payload-class satellites include a variety of spacecraft equipped with specific instruments for various scientific and technological missions. These include communications satellites like Starlink; space stations such as the ISS; scientific satellites like the Hubble; Earth observation satellites from companies like Planet Labs, Umbra, and HawkEye 360; GPS; miniature CubeSats for education and research; and military/defense satellites.

Loading next visibility...
Identifier
41866, 2016-071A
Orbit
GEO
Country
Flag of USUS
Related business
Manufacturer
LMCSS
Mission
Operational Civil Weather
Bus & Motor
A2100, LEROS-1C
Mass
5,192 kg wet, 2,857 kg dry
Launch date (UTC)
2016-11-19 (10 years ago)
Launch vehicle
ATLAS V 541
Launch site
Air Force Eastern Test Range (AFETR)
Object type
Payload
Rocket body
Debris
Shape & HBR
Box + 1 Pan + 1 Rod, 20.0 m
Radar Cross Section
37.561 m², Large (>1 m²)

Expand to show TLE details & history
Last TLE update: 8 hours ago

TLE from 8 hours ago
0 GOES 16
1 41866U 16071A   26256.25361587 -.00000102  00000-0  00000-0 0  9992
2 41866   0.5533  84.5635 0001678 130.5264 123.7900  1.00272587 35986
Epoch: 2026-09-13T06:05Z
TLE epoch observation values (Epoch: 2026-09-13T06:05:12.411Z)
Latitude
-0.52891°
Longitude
-104.6606°
Altitude
35,789.898 km
Speed
3.074 km/s
True Right ascension
22h 35m 34s
True Declination
0° 31' 42"
Sunlit
Object was in daylight at epoch
Visualization orbit readout
Latitude
Unknown
Longitude
Unknown
Altitude
Unknown
Speed
Unknown
Apparent Right ascension
Unknown
Apparent Declination
Unknown
Sunlit
N/A
Visualization observer readout
Local Sidereal Time
06:34:40
Azimuth
Unknown
Elevation
Unknown
Doppler factor
Unknown
Orbital elements
Apogee altitude
35,794.516 km
Perigee altitude
35,780.365 km
Semi-major axis
42,165.577 km
Eccentricity
0.00017
Inclination
0.5533°
RAAN
84.5635°
Arg. of periapsis
130.5264°
True anomaly
123.80598°
Mean anomaly
123.79°
Eccentric anomaly
123.79799°
Mean motion
0.25067 °/min
Orbital period
1,436.14 mins
BSTAR
0
Loading maneuver chart data...
Computing Atmospheric mass density...
Loading historical data...
Loading historical data...
Loading historical data...
Loading historical data...
Loading historical data...
Loading historical data...
Loading historical data...
Other satellites on launch #71 in the year 2016 (2016-11-19 UTC)

Documentation

Showing up to 5 results
|